When you browse on this site, cookies collect data to enhance your experience and personalize the content and advertising you see.
Visit our Privacy Policy to learn more. By continuing to use the site, you agree to this use of cookies and data.
  • In Spain
  • List of Countries
  • For 7 days
  • Water Temperature
  • Satellite Maps
  • Weather Map
  • Weather Widgets
  • user-avatar
    Login

    Hourly Weather Krupytsya

    Today, 23 May, Thursday

    Time Temperature Precipitation Wind Pressure Humidity
    00:00 +14°C° 0.2 mm 3 mps 752 mmHg 81%
    01:00 +14°C° 0.2 mm 3 mps 752 mmHg 82%
    02:00 +15°C° 0.2 mm 2 mps 752 mmHg 83%
    03:00 +15°C° 0 mm 2 mps 752 mmHg 83%
    04:00 +16°C° 0 mm 2 mps 752 mmHg 82%
    05:00 +16°C° 0 mm 2 mps 752 mmHg 81%
    06:00 +18°C° 0 mm 2 mps 752 mmHg 74%
    07:00 +20°C° 0 mm 3 mps 752 mmHg 67%
    08:00 +21°C° 0 mm 3 mps 752 mmHg 60%
    09:00 +23°C° 0 mm 4 mps 752 mmHg 54%
    10:00 +25°C° 0 mm 4 mps 752 mmHg 48%
    11:00 +26°C° 0 mm 5 mps 752 mmHg 42%
    12:00 +26°C° 0 mm 4 mps 752 mmHg 44%
    13:00 +26°C° 0 mm 4 mps 752 mmHg 45%
    14:00 +26°C° 0 mm 4 mps 752 mmHg 46%
    15:00 +26°C° 0 mm 4 mps 752 mmHg 47%
    16:00 +26°C° 0 mm 4 mps 751 mmHg 47%
    17:00 +26°C° 0 mm 3 mps 751 mmHg 48%
    18:00 +24°C° 0 mm 3 mps 751 mmHg 54%
    19:00 +21°C° 0 mm 4 mps 752 mmHg 60%
    20:00 +19°C° 0 mm 4 mps 752 mmHg 66%
    21:00 +18°C° 0 mm 3 mps 752 mmHg 70%
    22:00 +17°C° 0 mm 3 mps 752 mmHg 75%
    23:00 +16°C° 0 mm 3 mps 752 mmHg 80%

    Tomorrow, 24 May, Friday

    Time Temperature Precipitation Wind Pressure Humidity
    00:00 +16°C° 0 mm 2 mps 752 mmHg 82%
    01:00 +16°C° 0 mm 2 mps 752 mmHg 84%
    02:00 +15°C° 0 mm 2 mps 752 mmHg 86%
    03:00 +15°C° 0 mm 1 mps 752 mmHg 86%
    04:00 +15°C° 0 mm 1 mps 752 mmHg 86%
    05:00 +16°C° 0 mm 1 mps 752 mmHg 86%
    06:00 +19°C° 0 mm 1 mps 752 mmHg 77%
    07:00 +20°C° 0 mm 2 mps 752 mmHg 69%
    08:00 +23°C° 0 mm 2 mps 752 mmHg 61%
    09:00 +24°C° 0 mm 3 mps 752 mmHg 55%
    10:00 +25°C° 0 mm 3 mps 752 mmHg 50%
    11:00 +27°C° 0 mm 3 mps 752 mmHg 44%
    12:00 +27°C° 0 mm 3 mps 752 mmHg 42%
    13:00 +27°C° 0 mm 2 mps 752 mmHg 41%
    14:00 +28°C° 0 mm 2 mps 751 mmHg 40%
    15:00 +27°C° 0 mm 2 mps 751 mmHg 44%
    16:00 +27°C° 0 mm 1 mps 751 mmHg 48%
    17:00 +26°C° 0 mm 1 mps 751 mmHg 51%
    18:00 +25°C° 0.1 mm 1 mps 751 mmHg 55%
    19:00 +23°C° 0.1 mm 2 mps 751 mmHg 59%
    20:00 +21°C° 0.1 mm 2 mps 751 mmHg 63%
    21:00 +20°C° 0.9 mm 2 mps 751 mmHg 69%
    22:00 +19°C° 0.9 mm 2 mps 751 mmHg 76%
    23:00 +19°C° 0.9 mm 1 mps 751 mmHg 82%

    Day after tomorrow, 25 May, Saturday

    Time Temperature Precipitation Wind Pressure Humidity
    00:00 +19°C° 0 mm 1 mps 751 mmHg 82%
    01:00 +19°C° 0 mm 1 mps 751 mmHg 82%
    02:00 +17°C° 0 mm 0 mps 751 mmHg 82%
    03:00 +17°C° 0.5 mm 0 mps 751 mmHg 83%
    04:00 +18°C° 0.5 mm 1 mps 750 mmHg 83%
    05:00 +18°C° 0.5 mm 1 mps 750 mmHg 84%
    06:00 +20°C° 0.1 mm 1 mps 750 mmHg 79%
    07:00 +21°C° 0.1 mm 1 mps 751 mmHg 73%
    08:00 +21°C° 0.1 mm 2 mps 751 mmHg 68%
    09:00 +23°C° 0.1 mm 2 mps 751 mmHg 61%
    10:00 +25°C° 0.1 mm 1 mps 750 mmHg 55%
    11:00 +26°C° 0.1 mm 1 mps 750 mmHg 48%
    12:00 +26°C° 0.6 mm 2 mps 750 mmHg 50%
    13:00 +26°C° 0.6 mm 2 mps 750 mmHg 52%
    14:00 +25°C° 0.6 mm 3 mps 750 mmHg 55%
    15:00 +25°C° 0.9 mm 3 mps 750 mmHg 58%
    16:00 +24°C° 0.9 mm 3 mps 750 mmHg 61%
    17:00 +24°C° 0.9 mm 2 mps 750 mmHg 64%
    18:00 +22°C° 0.5 mm 3 mps 750 mmHg 68%
    19:00 +20°C° 0.5 mm 3 mps 750 mmHg 72%
    20:00 +19°C° 0.5 mm 3 mps 750 mmHg 76%
    21:00 +18°C° 0.6 mm 3 mps 750 mmHg 78%
    22:00 +17°C° 0.6 mm 3 mps 750 mmHg 81%
    23:00 +15°C° 0.6 mm 4 mps 750 mmHg 84%

    26 May, Sunday

    Time Temperature Precipitation Wind Pressure Humidity
    00:00 +16°C° 0 mm 3 mps 750 mmHg 87%
    01:00 +16°C° 0 mm 3 mps 750 mmHg 90%
    02:00 +16°C° 0 mm 3 mps 750 mmHg 93%
    03:00 +16°C° 0 mm 3 mps 750 mmHg 93%
    04:00 +16°C° 0 mm 3 mps 750 mmHg 93%
    05:00 +16°C° 0 mm 3 mps 750 mmHg 93%
    06:00 +18°C° 0 mm 3 mps 751 mmHg 86%
    07:00 +20°C° 0 mm 3 mps 751 mmHg 79%
    08:00 +22°C° 0 mm 3 mps 751 mmHg 72%
    09:00 +23°C° 0.1 mm 4 mps 751 mmHg 66%
    10:00 +25°C° 0.1 mm 4 mps 752 mmHg 60%
    11:00 +26°C° 0.1 mm 4 mps 752 mmHg 54%
    12:00 +27°C° 0.7 mm 5 mps 752 mmHg 53%
    13:00 +27°C° 0.7 mm 5 mps 752 mmHg 53%
    14:00 +27°C° 0.7 mm 5 mps 752 mmHg 53%
    15:00 +27°C° 0.1 mm 5 mps 752 mmHg 52%
    16:00 +27°C° 0.1 mm 4 mps 752 mmHg 51%
    17:00 +27°C° 0.1 mm 4 mps 753 mmHg 50%
    18:00 +25°C° 0 mm 4 mps 753 mmHg 54%
    19:00 +22°C° 0 mm 3 mps 753 mmHg 59%
    20:00 +21°C° 0 mm 3 mps 754 mmHg 63%
    21:00 +20°C° 0 mm 3 mps 754 mmHg 67%
    22:00 +19°C° 0 mm 3 mps 754 mmHg 70%
    23:00 +18°C° 0 mm 4 mps 754 mmHg 73%

    27 May, Monday

    Time Temperature Precipitation Wind Pressure Humidity
    00:00 +17°C° 0 mm 3 mps 754 mmHg 76%
    01:00 +17°C° 0 mm 3 mps 754 mmHg 80%
    02:00 +17°C° 0 mm 3 mps 754 mmHg 83%
    03:00 +17°C° 0 mm 3 mps 754 mmHg 83%
    04:00 +17°C° 0 mm 4 mps 754 mmHg 84%
    05:00 +17°C° 0 mm 4 mps 754 mmHg 85%
    06:00 +19°C° 0 mm 4 mps 755 mmHg 78%
    07:00 +21°C° 0 mm 5 mps 755 mmHg 71%
    08:00 +23°C° 0 mm 6 mps 755 mmHg 65%
    09:00 +24°C° 0.3 mm 6 mps 756 mmHg 62%
    10:00 +27°C° 0.3 mm 6 mps 756 mmHg 58%
    11:00 +28°C° 0.3 mm 6 mps 756 mmHg 55%
    12:00 +28°C° 0.5 mm 5 mps 756 mmHg 54%
    13:00 +28°C° 0.5 mm 5 mps 756 mmHg 52%
    14:00 +29°C° 0.5 mm 4 mps 756 mmHg 51%
    15:00 +28°C° 0.1 mm 3 mps 756 mmHg 53%
    16:00 +28°C° 0.1 mm 3 mps 756 mmHg 55%
    17:00 +27°C° 0.1 mm 2 mps 756 mmHg 57%
    18:00 +26°C° 0 mm 2 mps 757 mmHg 61%
    19:00 +24°C° 0 mm 1 mps 757 mmHg 66%
    20:00 +22°C° 0 mm 1 mps 757 mmHg 70%
    21:00 +21°C° 0 mm 1 mps 757 mmHg 73%
    22:00 +21°C° 0 mm 1 mps 757 mmHg 77%
    23:00 +20°C° 0 mm 1 mps 757 mmHg 80%

    28 May, Tuesday

    Time Temperature Precipitation Wind Pressure Humidity
    00:00 +19°C° 0 mm 1 mps 757 mmHg 82%
    01:00 +19°C° 0 mm 1 mps 757 mmHg 84%
    02:00 +18°C° 0 mm 1 mps 757 mmHg 86%
    03:00 +18°C° 0 mm 1 mps 757 mmHg 87%
    04:00 +18°C° 0 mm 2 mps 757 mmHg 87%
    05:00 +18°C° 0 mm 2 mps 757 mmHg 87%
    06:00 +20°C° 0 mm 3 mps 757 mmHg 79%
    07:00 +22°C° 0 mm 3 mps 757 mmHg 70%
    08:00 +25°C° 0 mm 4 mps 757 mmHg 61%
    09:00 +26°C° 0 mm 5 mps 757 mmHg 56%
    10:00 +27°C° 0 mm 6 mps 756 mmHg 51%
    11:00 +29°C° 0 mm 6 mps 756 mmHg 45%
    12:00 +29°C° 0 mm 7 mps 756 mmHg 43%
    13:00 +29°C° 0 mm 7 mps 756 mmHg 42%
    14:00 +29°C° 0 mm 7 mps 755 mmHg 40%
    15:00 +29°C° 0 mm 7 mps 755 mmHg 44%
    16:00 +28°C° 0 mm 7 mps 755 mmHg 47%
    17:00 +27°C° 0 mm 7 mps 754 mmHg 51%
    18:00 +24°C° 0 mm 6 mps 754 mmHg 58%
    19:00 +23°C° 0 mm 6 mps 754 mmHg 65%
    20:00 +21°C° 0 mm 5 mps 754 mmHg 73%
    21:00 +21°C° 0 mm 5 mps 754 mmHg 74%
    22:00 +20°C° 0 mm 5 mps 754 mmHg 76%
    23:00 +20°C° 0 mm 5 mps 754 mmHg 78%
    Show more